Tracking 25711 objects as of 23-May-2022
HD Live streaming from Space Station
objects crossing your sky now

COSMOS 1275 DEB

Track COSMOS 1275 DEB now!
10-day predictions


NORAD ID: 12766
Int'l Code: 1981-053DK
Perigee: 938.4 km
Apogee: 1,089.3 km
Inclination: 82.9 °
Period: 105.3 minutes
Semi major axis: 7384 km
RCS: 0.051 m2 (small)
Launch date: June 4, 1981
Source: Commonwealth of Independent States (former USSR) (CIS)
Launch site: PLESETSK MISSILE AND SPACE COMPLEX (PKMTR)

Note: This is SATELLITE DEBRIS
aabbcc
Your satellite tracking list
Your tracking list is empty




NASA's NSSDC Master Catalog

Two Line Element Set (TLE):
1 12766U 81053DK  22142.24127492  .00000547  00000-0  60324-3 0  9995
2 12766  82.9448 128.4718 0102138  70.4881 304.3159 13.68017956 28385
Source of the keplerian elements: AFSPC